Location: Newark
(63.1158°N, 8.1461°E)
Time: 12:17:33
(UTC+00:00)

Envisat - Pass Details

Date: 17 December 2019
Orbit: 764 x 766 km, 98.1° (Epoch: 22 January)

Event Time Altitude Azimuth Distance (km) Brightness Sun altitude
Rises 18:20:46 0° 202° (SSW) 3,230 6.5 -27.1°
Reaches altitude 10° 18:23:26 10° 215° (SW) 2,308 5.8 -27.5°
Maximum altitude 18:27:40 26° 271° (W) 1,485 5.1 -27.9°
Drops below altitude 10° 18:31:56 10° 328° (NNW) 2,320 5.9 -28.4°
Sets 18:34:37 0° 341° (NNW) 3,251 6.5 -28.7°
